Regional Weather Roundup
Issued by NWS Newport/Morehead, NC

Current Version | Previous Version | Graphics & Text | Print | Product List | Glossary Off
Versions: 1 2 3 4 5 6 7 8 9 10 11 12 13 14 15 16 17 18 19 20 21 22 23 24 25 26 27 28 29 30 31 32 33 34 35 36 37 38 39 40 41 42 43 44 45 46 47 48 49 50

372
ASUS42 KMHX 201614
RWRMHX
WEATHER ROUNDUP FOR EASTERN NORTH CAROLINA
NATIONAL WEATHER SERVICE NEWPORT/MOREHEAD CITY NC
1200 PM EDT SUN AUG 20 2017

NOTE: "FAIR" INDICATES FEW OR NO CLOUDS BELOW 12,000 FEET
WITH NO SIGNIFICANT WEATHER AND/OR OBSTRUCTIONS TO VISIBILITY

NCZ015>017-031-032-045>047-102-103-201700-
NORTH COAST

CITY           SKY/WX    TMP DP  RH WIND       PRES   REMARKS
EDENTON        CLOUDY    90  74  60 CALM      30.10F
ELIZABETH CITY SUNNY     89  75  63 NE6       30.10S
KITTY HAWK     MOSUNNY   82  74  75 CALM      30.09S
MANTEO         PTSUNNY   84  75  75 CALM      30.11R

$$

NCZ045>047-081-094-103-104-201700-
CENTRAL COAST

CITY           SKY/WX    TMP DP  RH WIND       PRES   REMARKS
FRISCO         CLOUDY    80  77  90 SW5       30.11R

$$

NCZ095-097-098-100-101-201700-
SOUTHERN COAST

CITY           SKY/WX    TMP DP  RH WIND       PRES   REMARKS
BEAUFORT       CLOUDY    83  78  85 NW5       30.09F
CEDAR ISLAND   NOT AVBL
JACKSONVILLE   PTSUNNY   84  79  85 NE6       30.09F
PINEY ISLAND   CLOUDY   N/A N/A N/A CALM      30.09F
WILMINGTON     PTSUNNY   86  78  77 E8        30.09F


$$

NCZ011>013-027>030-043-044-078>080-089-090>093-098-201700-
COASTAL PLAIN

CITY           SKY/WX    TMP DP  RH WIND       PRES   REMARKS
AHOSKIE          N/A     86  71  60 N3        30.11R
CLINTON        SUNNY     89  76  65 E5        30.10F HX 100
ELIZABETHTOWN  NOT AVBL
GOLDSBORO      MOSUNNY   90  73  58 VRB5      30.10R
GREENVILLE     MOSUNNY   90  72  55 N5        30.11S
HAVELOCK       CLOUDY    86  76  71 CALM      30.10F
KENANSVILLE    SUNNY     88  73  62 E5        30.10F
KINSTON        NOT AVBL
NEW BERN       MOSUNNY   86  76  71 CALM      30.11S
RICHLANDS      PTSUNNY   84  77  79 E7        30.11S
ROCKY MOUNT    SUNNY     89  71  55 NE6       30.11S
WASHINGTON     CLOUDY    86  74  67 CALM      30.10F
WHITEVILLE     MOSUNNY   84  78  81 NE5       30.10S

$$

AMZ130-135-150-152-154-156-158-170-250-252-270-ANZ085-086-088-633-658-670-201700-
MARINE OBSERVATIONS

STATION/POSITION TIME  TEMP    WIND        PRES    WAVE   SWELL
                       AIR SEA DIR/SP/G            HT/PER HT/PER
                 (UTC) (F)     (DEG/KT/KT) (MB)    (FT/S) (FT/S)
CHESAPEAKE LIGHT NOT AVBL
64 E VA BEACH    1550   79 79   40/  6/  6 1019.9    2/ 8   2/ 8
DUCK             1536   79 75  360/  4/  5 1018.9
2 E DUCK         1600      79                N/A     2/ 8
OREGON INLET     1536   80 78   30/  4/  6 1019.2
13E OREGON INLT  1548      80                N/A     3/ 8   3/ 8
HATTERAS CG      1536   80 80  220/  3/  5 1019.4
DIAMOND BUOY     1550   80 84  310/  6/  6 1019.1    3/ 8   2/ 8
CAPE LOOKOUT     1600   80      80/  1/  2 1018.6
BEAUFORT LAB     1536   82 81   CALM  /  1 1018.7
30 SE NEW RVR IN 1508   74 83  130/  2/  4 1019.2
30 SE NEW RVR IN 1543      83                N/A     3/ 8
27 SE WRIGHTSVLE 1508   81 83   70/  8/ 12 1019.4
5 SE WRIGHTSVLE  1508   81 83   60/  6/ 10 1019.1
225 S CAPE HAT   1550   83 85  140/  6/  8 1019.8    3/ 9   3/ 9
41 SE CHARLESTON 1600   85 85   CALM  /  2 1018.5

$$




USA.gov is the U.S. government's official web portal to all federal, state and local government web resources and services.